Hourly Data Report for August 24, 2021

DRYDEN REGIONAL
ONTARIO
Current Station Operator: NAVCAN

49°49'39.000" N
92°44'39.000" W
412.70 m
6032125
71527
YHD

Download Data

Hourly Data (August 2021)
Hourly Data Report for August 24, 2021
TIME
LST
Temp Definition
°C
Dew Point Definition
°C
Rel Hum Definition
%
Precip. Amount Definition
mm

Wind Dir Definition
10's deg

Wind Spd Definition
km/h
Visibility Definition
km
Stn Press Definition
kPa
Hmdx Definition


Wind Chill Definition


Weather Definition


00:00 15.3 13.3 88 0.0 29 9 16.1 96.52     LegendNANA
01:00 15.3 12.9 85 0.0 29 9 16.1 96.52     LegendNANA
02:00 14.9 13.1 89 0.0 30 5 16.1 96.56     LegendNANA
03:00 14.8 13.1 89 0.0 26 8 16.1 96.58     LegendNANA
04:00 14.5 12.9 90 0.0 LegendMM 4 16.1 96.53     LegendNANA
05:00 14.1 12.8 92 0.0 4 8 16.1 96.46     LegendNANA
06:00 14.6 13.5 93 0.0 4 9 16.1 96.48     LegendNANA
07:00 15.0 13.6 91 0.0 7 11 16.1 96.45     LegendNANA
08:00 16.7 14.1 85 0.0 10 9 16.1 96.52     LegendNANA
09:00 17.3 13.8 80 0.0 13 15 16.1 96.57     LegendNANA
10:00 18.5 13.0 70 0.0 13 15 16.1 96.64     LegendNANA
11:00 19.3 13.2 67 0.0 6 8 16.1 96.60     LegendNANA
12:00 20.3 13.8 66 0.0 5 11 16.1 96.53     LegendNANA
13:00 21.1 13.3 61 0.0 7 9 16.1 96.48     LegendNANA
14:00 22.7 12.9 53 0.0 16 17 16.1 96.45 25   LegendNANA
15:00 22.9 13.0 53 0.0 22 5 16.1 96.41 26   LegendNANA
16:00 22.1 14.2 61 0.0 4 8 16.1 96.36 26   LegendNANA
17:00 22.3 14.2 60 0.0 5 8 16.1 96.37 26   LegendNANA
18:00 20.8 15.6 72 0.0 6 8 16.1 96.33 25   LegendNANA
19:00 20.1 14.8 71 0.0 8 9 16.1 96.31     LegendNANA
20:00 19.4 13.6 69 0.0 11 11 16.1 96.36     LegendNANA
21:00 18.9 13.2 69 0.0 13 11 16.1 96.35     LegendNANA
22:00 18.6 13.7 73 0.0 14 11 16.1 96.36     LegendNANA
23:00 19.1 14.0 72 0.0 17 11 16.1 96.37     LegendNANA

Notes on Data Quality.

Legend

  • E = Estimated
  • M = Missing
  • NA = Not Available*
  • [empty] = Indicates an unobserved value
Date modified: